Location: Utrecht
(52.0907°N, 5.1214°E)
Time: 23:52:34
(UTC+02:00)

XW-2A - Visible Passes

Search period start: 28 June 2022 00:00
Search period end: 08 July 2022 00:00
Orbit: 397 x 413 km, 97.2° (Epoch: 28 June)

Date Brightness Start Highest point End Pass type
(mag) Time Alt. Az. Time Alt. Az. Time Alt. Az.
29 Jun ? 23:13:32 10° SSW 23:16:03 22° W 23:18:35 10° NW visible
01 Jul ? 23:07:50 10° SSW 23:10:31 26° W 23:13:11 10° NW visible
03 Jul ? 23:02:02 10° SSW 23:04:49 30° W 23:07:38 10° NNW visible
04 Jul ? 23:47:55 10° W 23:48:12 10° W 23:48:29 10° W visible
05 Jul ? 22:56:07 10° SSW 22:59:00 35° W 23:01:55 10° NNW visible
06 Jul ? 23:41:02 10° WSW 23:42:16 12° W 23:43:31 10° WNW visible
07 Jul ? 22:50:05 10° S 22:53:03 42° W 22:56:03 10° NNW visible
